Volver al catálogo

COSMOS 1691 DEB

ActivoPO
NORAD 16268·DEBRIS·🇷🇺 Russia

Lanzado Oct 9, 1985 desde Plesetsk Cosmodrome

Loading…

Próximos Pases (próximas 24 horas)

TLE

ActualizadoSource: Space-Track

Época: Sep 14, 2026, 11:17 UTC

1 16268U 85094M   26257.47063440  .00000086  00000-0  45520-3 0  9992
2 16268  82.7124 144.7071 0085743 299.9006 237.1673 12.56655033868035

Sigue COSMOS 1691 DEB en tiempo real con AllMySat

Download on the App Store